This is the latest recevied weather packets stored in our database for station/object ke5jzm-1. If no packets are shown the sender has not sent any weather packets the latest 10 day(s).
| Time | Temp. | Humidity | Pressure | Rain* | Wind** | Luminosity | Snow |
|---|---|---|---|---|---|---|---|
| 1778351792 | 24.44° C | 63% | 1013.1 hPa | 4.83 mm | - | 21 W/m² | - |
| 1778351732 | 24.44° C | 63% | 1013.1 hPa | 4.32 mm | - | 20 W/m² | - |
| 1778351672 | 24.44° C | 63% | 1013.2 hPa | 4.32 mm | - | 20 W/m² | - |
| 1778351612 | 24.44° C | 63% | 1013.3 hPa | 4.06 mm | - | 20 W/m² | - |
| 1778351554 | 24.44° C | 63% | 1013.5 hPa | 3.81 mm | - | 19 W/m² | - |
| 1778351492 | 24.44° C | 63% | 1013.5 hPa | 3.56 mm | - | 19 W/m² | - |
| 1778351478 | 24.44° C | 63% | 1013.6 hPa | 3.3 mm | - | 20 W/m² | - |
| 1778351372 | 24.44° C | 63% | 1013.6 hPa | 3.3 mm | - | 20 W/m² | - |
| 1778351312 | 24.44° C | 63% | 1013.5 hPa | 3.3 mm | - | 20 W/m² | - |
| 1778351252 | 24.44° C | 63% | 1013.5 hPa | 3.3 mm | - | 20 W/m² | - |
| 1778351192 | 24.44° C | 63% | 1013.5 hPa | 3.05 mm | - | 19 W/m² | - |
| 1778351178 | 24.44° C | 63% | 1013.4 hPa | 2.79 mm | - | 17 W/m² | - |
| 1778351072 | 24.44° C | 63% | 1013.4 hPa | 2.79 mm | - | 16 W/m² | - |
| 1778351012 | 24.44° C | 63% | 1013.3 hPa | 2.79 mm | - | 17 W/m² | - |
| 1778350953 | 24.44° C | 63% | 1013.2 hPa | 2.79 mm | - | 20 W/m² | - |
| 1778350893 | 24.44° C | 63% | 1013.1 hPa | 2.54 mm | - | 24 W/m² | - |
| 1778350832 | 24.44° C | 63% | 1013 hPa | 2.54 mm | - | 26 W/m² | - |
| 1778350773 | 24.44° C | 63% | 1013 hPa | 2.29 mm | - | 27 W/m² | - |
| 1778350712 | 24.44° C | 63% | 1012.9 hPa | 2.29 mm | - | 27 W/m² | - |
| 1778350653 | 24.44° C | 63% | 1012.8 hPa | 2.29 mm | - | 27 W/m² | - |
| 1778350592 | 24.44° C | 63% | 1012.7 hPa | 2.29 mm | - | 27 W/m² | - |
| 1778350532 | 24.44° C | 63% | 1012.7 hPa | 2.29 mm | - | 26 W/m² | - |
| 1778350472 | 24.44° C | 63% | 1012.6 hPa | 2.03 mm | - | 26 W/m² | - |
| 1778350412 | 24.44° C | 63% | 1012.7 hPa | 2.03 mm | - | 26 W/m² | - |
| 1778350354 | 24.44° C | 63% | 1012.8 hPa | 2.03 mm | - | 25 W/m² | - |
* Rain latest hour (hover to see other rain measurements)
** Current wind speed in m/s (hover to see current wind gust speed)